+ View the NASA Portal
+ Center for Near-Earth Object Studies
IMPORTANT:
The SSD Announcement email list is now available. Major changes are coming in the near future, including possible hostname and/or URL changes. To be notified of such changes, subscribe to this email list.
Please visit
this page
for more details.
Don't show this message again
JPL Small-Body Database Browser
Search:
[
help
]
97498 (2000 CX89)
Classification:
Main-belt Asteroid
SPK-ID:
2097498
[
Ephemeris
|
Orbit Diagram
|
Orbital Elements
|
Mission Design
|
Physical Parameters
|
Discovery Circumstances
|
Close-Approach Data
]
[ show orbit diagram ]
Orbital Elements at Epoch 2458600.5 (2019-Apr-27.0) TDB
Reference:
JPL 16
(heliocentric ecliptic J2000)
Element
Value
Uncertainty (1-sigma)
Units
e
.1067224687575751
5.9581e-08
a
3.079116154497485
3.1303e-08
au
q
2.750505276898183
1.8141e-07
au
i
10.45058962092137
4.6933e-06
deg
node
110.0416970302865
3.9018e-05
deg
peri
56.9762206574599
4.6767e-05
deg
M
165.1485254758924
2.8048e-05
deg
t
p
2457695.164115025130
(2016-Nov-02.66411503)
0.00014766
TDB
period
1973.501838128913
5.40
3.0095e-05
8.24e-08
d
yr
n
.1824168556849776
2.7818e-09
deg/d
Q
3.407727032096788
3.4644e-08
au
Orbit Determination Parameters
# obs. used (total)
519
data-arc span
7239 days (19.82 yr)
first obs. used
2000-01-06
last obs. used
2019-11-01
planetary ephem.
DE431
SB-pert. ephem.
SB431-N16
condition code
0
norm. resid. RMS
.59144
source
ORB
producer
Otto Matic
solution date
2019-Nov-07 11:31:03
Additional Information
Earth MOID
= 1.77618 au
Jupiter MOID
= 1.66223 au
T_jup
= 3.194
[ show covariance matrix ]
[
Ephemeris
|
Orbit Diagram
|
Orbital Elements
|
Mission Design
|
Physical Parameters
|
Discovery Circumstances
|
Close-Approach Data
]
Physical Parameter Table
Parameter
Symbol
Value
Units
Sigma
Reference
Notes
absolute magnitude
H
14.4
n/a
MPO412728
diameter
diameter
6.903
km
0.226
urn:nasa:pds:neowise_diameters_albedos::2.0[mainbelt] (http://adsabs.harvard.edu/abs/2011ApJ...741...68M)
geometric albedo
albedo
0.077
0.015
urn:nasa:pds:neowise_diameters_albedos::2.0[mainbelt] (http://adsabs.harvard.edu/abs/2011ApJ...741...68M)
97498 (2000 CX89)
Discovered 2000-Feb-05 by LINEAR at Socorro
Reference:
20050224/Numbers.arc
Last Updated:
2005-02-28
[ show close-approach data ]
[
Ephemeris
|
Orbit Diagram
|
Orbital Elements
|
Mission Design
|
Physical Parameters
|
Discovery Circumstances
|
Close-Approach Data
]
2019-Dec-11 08:38 UT
(server date/time)
Site Manager:
Ryan S. Park
Webmaster
:
Alan B. Chamberlin